Regional Weather Roundup
Issued by NWS Goodland, KS

Home | Current Version | Previous Version | Text Only | Print | Product List | Glossary Off
Versions: 1 2 3 4 5 6 7 8 9 10 11 12 13 14 15 16 17 18 19 20 21 22 23 24 25 26 27 28 29 30 31 32 33 34 35 36 37 38 39 40 41 42 43 44 45 46 47 48 49 50

000
ASUS43 KGLD 221959
RWRGLD

GOODLAND FORECAST AREA HOURLY WEATHER ROUNDUP
NATIONAL WEATHER SERVICE GOODLAND KS
200 PM MDT TUE JUL 22 2014

...OFFICIAL OBSERVATIONS...

CITY           SKY/WX    TMP DP  RH WIND       PRES   REMARKS
GOODLAND KS    SUNNY     94  59  31 MISG      30.18S
HILL CITY KS   SUNNY     99  63  30 SE5       30.09S HX 101
IMPERIAL NEB   SUNNY     93  59  31 E13       30.19S
MCCOOK NEB     SUNNY     93  66  40 VRB7      30.14R
AKRON CO       SUNNY     90  56  31 E10G20    30.28S
BURLINGTON CO  SUNNY     93  56  28 VRB6      30.21S
LIMON CO       SUNNY     91  48  22 SE10G20   30.31F
$$

...UNOFFICIAL OBSERVATIONS...

CITY           SKY/WX    TMP DP  RH WIND       PRES   REMARKS
COLBY KS       SUNNY     93  66  40 E6        30.16F
GOVE KS          N/A     94  32  11 MISG        N/A
LENORA KS        N/A     94  32  11 MISG        N/A
NORTON KS      SUNNY     95  57  28 SE6       30.09F
SHARON SPRINGS   N/A     94  63  35 CALM        N/A
WAKEENEY KS      N/A     97  58  27 MISG        N/A
KIT CARSON CO    N/A     96  53  23 N10         N/A
YUMA CO          N/A     89  58  34 NE7G15      N/A
$$


USA.gov is the U.S. government's official web portal to all federal, state and local government web resources and services.